EW4561 Weather Reports


Display with metric or nautical units.
time (UTC)temp
F
wind
direction
speed
MPH
gust
MPH
rain 1hr
in
rain 24hr
in
rain mn
in
humidity
%
barometer
mb
20171021160001 56 0 0.0 0.0 0.00 0.01 0.00 87 1014.8
20171021155401 56 0 0.0 0.0 0.00 0.01 0.00 87 1015.0
20171021154801 56 0 0.0 0.0 0.00 0.01 0.00 87 1015.0
20171021154201 56 0 0.0 0.0 0.00 0.01 0.00 87 1015.1
20171021153601 56 0 0.0 0.0 0.00 0.01 0.00 87 1015.2
20171021153001 56 0 0.0 0.0 0.00 0.01 0.00 87 1015.2
20171021152401 56 0 0.0 0.0 0.00 0.01 0.00 87 1015.3
20171021151801 56 0 0.0 0.0 0.00 0.01 0.00 87 1015.4
20171021151201 56 0 0.0 0.0 0.00 0.01 0.00 87 1015.4
20171021150601 56 0 0.0 0.0 0.00 0.01 0.00 86 1015.5
20171021150001 56 0 0.0 0.0 0.00 0.01 0.00 87 1015.6
20171021145401 56 0 0.0 0.0 0.00 0.01 0.00 86 1015.6
20171021144800 56 0 0.0 0.0 0.00 0.01 0.00 86 1015.7
20171021144201 56 0 0.0 0.0 0.00 0.01 0.00 86 1015.8
20171021143600 56 0 0.0 0.0 0.00 0.01 0.00 86 1015.8
20171021143000 56 0 0.0 0.0 0.00 0.01 0.00 85 1015.8
20171021142401 56 0 0.0 0.0 0.00 0.01 0.00 85 1015.8
20171021141801 56 0 0.0 0.0 0.00 0.01 0.00 85 1015.8
20171021141201 56 0 0.0 0.0 0.00 0.01 0.00 85 1015.9
20171021140600 56 0 0.0 0.0 0.00 0.01 0.00 85 1016.1
20171021140000 57 0 0.0 0.0 0.00 0.01 0.00 84 1016.1
20171021135400 57 0 0.0 0.0 0.00 0.01 0.00 84 1016.2
20171021134800 57 0 0.0 0.0 0.00 0.01 0.00 84 1016.3
20171021134200 57 0 0.0 0.0 0.00 0.01 0.00 84 1016.3
20171021133601 57 0 0.0 0.0 0.00 0.01 0.00 84 1016.4
20171021133001 57 0 0.0 0.0 0.00 0.01 0.00 84 1016.5
20171021132401 57 0 0.0 0.0 0.00 0.01 0.00 84 1016.6
20171021131801 57 0 0.0 0.0 0.00 0.01 0.00 84 1016.7
20171021131201 57 0 0.0 0.0 0.00 0.01 0.00 84 1016.7
20171021130601 57 0 0.0 0.0 0.00 0.01 0.00 83 1016.8
20171021130001 57 0 0.0 0.0 0.00 0.01 0.00 83 1016.8
20171021125400 57 0 0.0 0.0 0.00 0.01 0.01 82 1016.8
20171021124801 57 0 0.0 0.0 0.00 0.01 0.01 82 1016.8
20171021124201 57 0 0.0 0.0 0.00 0.01 0.01 82 1016.8
20171021123601 57 0 0.0 0.0 0.00 0.01 0.01 81 1016.9
20171021123000 57 0 0.0 0.0 0.00 0.01 0.01 81 1017.0
20171021122400 57 0 0.0 0.0 0.00 0.01 0.01 81 1017.0
20171021121801 57 0 0.0 0.0 0.00 0.01 0.01 81 1017.0
20171021121201 57 0 0.0 0.0 0.00 0.01 0.01 80 1017.1
20171021120601 58 0 0.0 0.0 0.00 0.01 0.01 79 1017.1
20171021120001 58 0 0.0 0.0 0.00 0.01 0.01 79 1017.1
20171021115400 58 0 0.0 0.0 0.00 0.01 0.01 79 1017.1
20171021114801 58 0 0.0 0.0 0.00 0.01 0.01 79 1017.1
20171021114201 58 0 0.0 0.0 0.00 0.01 0.01 79 1017.2
20171021113601 58 0 0.0 0.0 0.00 0.01 0.01 79 1017.2
20171021113000 58 0 0.0 0.0 0.00 0.01 0.01 78 1017.3
20171021112401 58 0 0.0 0.0 0.00 0.01 0.01 78 1017.3
20171021111801 58 0 0.0 0.0 0.00 0.01 0.01 78 1017.3
20171021111202 58 0 0.0 0.0 0.00 0.01 0.01 78 1017.3
20171021110601 58 0 0.0 0.0 0.00 0.01 0.01 78 1017.4
20171021110001 58 0 0.0 0.0 0.00 0.01 0.01 78 1017.4
20171021105401 58 0 0.0 0.0 0.00 0.01 0.01 79 1017.6
20171021104801 58 0 0.0 0.0 0.00 0.01 0.01 79 1017.6
20171021104200 58 0 0.0 0.0 0.00 0.01 0.01 78 1017.5
20171021103601 58 0 0.0 0.0 0.00 0.01 0.01 77 1017.5
20171021103000 58 0 0.0 0.0 0.00 0.01 0.01 77 1017.5
20171021102400 58 0 0.0 0.0 0.00 0.01 0.01 77 1017.5
20171021101800 58 94 0.0 1.0 0.00 0.01 0.01 77 1017.5
20171021101201 58 94 0.0 2.0 0.00 0.01 0.01 77 1017.5
20171021100601 58 94 0.0 2.0 0.00 0.01 0.01 77 1017.5
20171021100001 58 94 0.0 1.0 0.00 0.01 0.01 76 1017.5
20171021095401 58 94 0.0 1.0 0.00 0.01 0.01 76 1017.4
20171021094801 58 0 0.0 0.0 0.00 0.01 0.01 75 1017.4
20171021094201 59 0 0.0 0.0 0.00 0.01 0.01 75 1017.4
20171021093601 59 0 0.0 0.0 0.00 0.01 0.01 73 1017.3
20171021093001 59 0 0.0 0.0 0.00 0.01 0.01 73 1017.4
20171021092401 60 93 0.0 2.0 0.00 0.01 0.01 71 1017.3
20171021091807 60 94 0.0 2.0 0.00 0.01 0.01 70 1017.2
20171021091201 60 94 0.0 2.0 0.00 0.01 0.01 69 1017.2
20171021090601 60 101 0.0 2.0 0.00 0.01 0.01 69 1017.1
20171021090001 60 106 1.0 3.0 0.00 0.01 0.01 69 1017.0
20171021085401 61 110 2.0 4.0 0.00 0.01 0.01 68 1017.0
20171021084801 61 108 2.0 7.0 0.00 0.01 0.01 67 1017.0
20171021084201 61 111 2.0 7.0 0.00 0.01 0.01 67 1016.9
20171021083601 61 106 2.0 5.0 0.00 0.01 0.01 66 1017.0
20171021083001 61 93 2.0 9.0 0.00 0.02 0.01 65 1016.9
20171021082401 62 90 2.0 9.0 0.00 0.02 0.01 65 1016.9
20171021081801 62 94 3.0 8.0 0.00 0.02 0.01 64 1016.8
20171021081201 62 94 3.0 8.0 0.00 0.02 0.01 64 1016.8
20171021080600 63 93 3.0 9.0 0.00 0.02 0.01 62 1016.7
20171021080001 63 89 4.0 11.0 0.00 0.02 0.01 61 1016.7
20171021075402 63 78 4.0 11.0 0.00 0.02 0.01 61 1016.7
20171021074801 64 74 3.0 10.0 0.00 0.02 0.01 60 1016.7
20171021074201 64 68 3.0 8.0 0.00 0.02 0.01 59 1016.7
20171021073600 64 59 3.0 9.0 0.00 0.02 0.01 59 1016.6
20171021073001 65 66 3.0 9.0 0.00 0.03 0.01 58 1016.7
20171021072401 65 62 3.0 10.0 0.00 0.05 0.01 58 1016.6
20171021071801 66 59 3.0 10.0 0.00 0.05 0.01 57 1016.7
20171021071201 66 86 2.0 9.0 0.00 0.06 0.01 56 1016.6
20171021070601 67 100 3.0 9.0 0.00 0.06 0.01 55 1016.6
20171021070001 67 102 3.0 8.0 0.00 0.06 0.01 56 1016.6
20171021065401 67 103 3.0 9.0 0.00 0.07 0.01 55 1016.6
20171021064801 67 105 3.0 9.0 0.00 0.08 0.01 54 1016.6
20171021064201 67 93 3.0 9.0 0.00 0.08 0.01 54 1016.7
20171021063601 67 67 3.0 9.0 0.00 0.08 0.01 53 1016.7
20171021063001 67 76 3.0 8.0 0.00 0.08 0.01 54 1016.7
20171021062401 67 86 3.0 10.0 0.00 0.09 0.01 53 1016.7
20171021061801 67 92 3.0 10.0 0.00 0.09 0.01 52 1016.6
20171021061201 67 105 3.0 9.0 0.00 0.09 0.01 53 1016.7
20171021060601 67 92 3.0 9.0 0.00 0.09 0.01 53 1016.7
20171021060001 67 78 3.0 9.0 0.00 0.09 0.01 53 1016.7
20171021055401 67 61 3.0 8.0 0.00 0.10 0.01 54 1016.8
20171021054801 67 99 3.0 9.0 0.00 0.10 0.01 54 1016.8
20171021054201 67 99 3.0 9.0 0.00 0.10 0.01 53 1016.8
20171021053601 67 80 3.0 9.0 0.00 0.11 0.01 53 1016.8
20171021053001 67 74 3.0 7.0 0.00 0.11 0.01 52 1016.9
20171021052401 67 105 3.0 10.0 0.00 0.11 0.01 53 1016.9
20171021051801 67 107 3.0 7.0 0.00 0.11 0.01 52 1016.9
20171021051200 67 120 3.0 8.0 0.00 0.11 0.01 52 1016.9
20171021050600 67 124 2.0 8.0 0.00 0.12 0.01 49 1017.0
20171021050001 68 91 2.0 6.0 0.00 0.13 0.01 48 1017.1
20171021045401 67 73 2.0 7.0 0.00 0.13 0.01 48 1017.1
20171021044801 68 89 4.0 9.0 0.00 0.14 0.01 50 1017.1
20171021044201 67 142 5.0 8.0 0.00 0.16 0.01 49 1017.2
20171021043601 67 139 4.0 10.0 0.00 0.17 0.01 51 1017.4
20171021043000 67 139 3.0 10.0 0.00 0.18 0.01 51 1017.4
20171021042400 66 168 2.0 9.0 0.00 0.19 0.01 51 1017.5
20171021041801 67 118 3.0 6.0 0.00 0.19 0.01 51 1017.6
20171021041201 66 149 3.0 11.0 0.00 0.20 0.01 51 1017.7
20171021040600 66 210 3.0 11.0 0.00 0.22 0.01 53 1017.8
20171021040000 66 129 4.0 8.0 0.00 0.23 0.01 51 1017.9
20171021035401 66 134 4.0 8.0 0.00 0.24 0.01 51 1018.0
20171021034801 66 161 3.0 10.0 0.00 0.25 0.01 52 1018.1
20171021034201 66 159 2.0 10.0 0.00 0.26 0.01 53 1018.2
20171021033601 66 121 3.0 7.0 0.00 0.27 0.01 52 1018.3
20171021033001 66 122 4.0 9.0 0.00 0.28 0.01 53 1018.3
20171021032401 65 132 4.0 9.0 0.00 0.30 0.01 54 1018.4
20171021031802 65 148 4.0 9.0 0.00 0.33 0.01 53 1018.4
20171021031200 66 132 3.0 9.0 0.00 0.36 0.01 53 1018.5
20171021030601 66 137 3.0 9.0 0.00 0.38 0.01 53 1018.5
20171021030001 66 167 2.0 8.0 0.00 0.41 0.01 51 1018.6
20171021025401 66 203 2.0 5.0 0.00 0.42 0.01 52 1018.7
20171021024801 66 143 2.0 4.0 0.00 0.43 0.01 50 1018.8
20171021024201 66 137 3.0 6.0 0.00 0.43 0.01 50 1019.0
20171021023601 66 123 2.0 6.0 0.00 0.43 0.01 50 1019.0
20171021023001 66 124 2.0 6.0 0.00 0.43 0.01 51 1019.1
20171021022401 67 123 3.0 6.0 0.00 0.43 0.01 52 1019.1
20171021021800 66 118 4.0 9.0 0.00 0.43 0.01 53 1019.2
20171021021201 66 132 3.0 10.0 0.00 0.43 0.01 53 1019.2
20171021020601 66 138 2.0 10.0 0.00 0.43 0.01 52 1019.3
20171021020001 66 79 2.0 7.0 0.00 0.43 0.01 49 1019.3
20171021015401 66 68 2.0 7.0 0.00 0.43 0.01 49 1019.4
20171021014801 66 270 2.0 7.0 0.00 0.43 0.01 51 1019.3
20171021014201 65 261 2.0 7.0 0.00 0.43 0.01 51 1019.5
20171021013601 65 200 2.0 4.0 0.00 0.43 0.01 49 1019.6
20171021013001 66 123 3.0 11.0 0.00 0.43 0.01 48 1019.7
20171021012401 66 206 3.0 11.0 0.00 0.43 0.01 47 1019.8
20171021011800 65 201 3.0 9.0 0.00 0.43 0.01 49 1019.8
20171021011200 65 191 2.0 5.0 0.00 0.44 0.01 50 1020.0
20171021010600 65 158 2.0 5.0 0.00 0.44 0.01 52 1020.1
20171021010001 65 193 3.0 7.0 0.00 0.44 0.01 52 1020.1
20171021005401 65 150 4.0 7.0 0.00 0.45 0.01 53 1020.2
20171021004801 64 160 4.0 8.0 0.00 0.46 0.01 52 1020.4
20171021004201 65 178 4.0 8.0 0.00 0.46 0.01 53 1020.5
20171021003601 64 191 5.0 10.0 0.00 0.46 0.01 55 1020.6
20171021003001 64 199 4.0 11.0 0.00 0.47 0.01 56 1020.7
20171021002401 63 190 4.0 11.0 0.00 0.49 0.01 56 1020.9
20171021001801 64 192 4.0 9.0 0.00 0.50 0.01 55 1020.9
20171021001201 64 163 4.0 11.0 0.00 0.50 0.01 55 1021.0
20171021000601 65 146 5.0 11.0 0.00 0.50 0.01 51 1021.1
20171021000001 64 159 6.0 14.0 0.00 0.50 0.01 56 1021.2
20171020235401 63 152 5.0 14.0 0.00 0.51 0.01 55 1021.2
20171020234801 64 163 5.0 12.0 0.00 0.51 0.01 56 1021.3
20171020234201 63 158 6.0 12.0 0.01 0.51 0.01 56 1021.5
20171020233601 63 142 6.0 12.0 0.01 0.51 0.01 57 1021.6
20171020233000 62 143 7.0 15.0 0.01 0.51 0.01 58 1021.6
20171020232401 63 154 7.0 15.0 0.01 0.51 0.01 57 1021.6
20171020231801 62 148 7.0 12.0 0.01 0.51 0.01 57 1021.5
20171020231201 63 178 7.0 12.0 0.01 0.51 0.01 58 1021.6
20171020230601 62 152 7.0 12.0 0.01 0.52 0.01 59 1021.5
20171020230001 61 154 6.0 15.0 0.01 0.52 0.01 60 1021.5
20171020225402 62 174 7.0 15.0 0.01 0.53 0.01 58 1021.5
20171020224801 61 177 7.0 15.0 0.01 0.53 0.01 61 1021.6
20171020224201 61 175 6.0 13.0 0.00 0.53 0.00 60 1021.5
20171020223601 61 190 6.0 12.0 0.00 0.53 0.00 60 1021.7
20171020223001 61 170 5.0 13.0 0.00 0.53 0.00 61 1021.7
20171020222401 61 166 5.0 10.0 0.00 0.54 0.00 60 1021.6
20171020221801 61 186 6.0 14.0 0.00 0.54 0.00 61 1021.6
20171020221201 60 197 5.0 14.0 0.00 0.54 0.00 62 1021.6
20171020220601 60 190 5.0 11.0 0.00 0.55 0.00 63 1021.6
20171020220001 60 191 6.0 11.0 0.00 0.56 0.00 63 1021.6
20171020215401 59 189 6.0 17.0 0.00 0.56 0.00 63 1021.7
20171020214801 59 194 6.0 13.0 0.00 0.57 0.00 64 1021.8
20171020214201 59 198 6.0 13.0 0.00 0.57 0.00 65 1021.8
20171020213601 59 203 6.0 10.0 0.00 0.57 0.00 64 1021.9
20171020213001 58 197 6.0 12.0 0.00 0.58 0.00 65 1021.8
20171020212401 58 199 5.0 12.0 0.00 0.59 0.00 64 1021.9
20171020211801 58 211 5.0 11.0 0.00 0.59 0.00 65 1021.8
20171020211201 58 210 5.0 10.0 0.00 0.61 0.00 66 1021.9
20171020210600 57 209 5.0 9.0 0.00 0.61 0.00 67 1022.1
20171020210002 57 211 5.0 12.0 0.00 0.61 0.00 67 1022.0
20171020205401 57 220 4.0 12.0 0.00 0.62 0.00 67 1021.9
20171020204801 57 218 4.0 11.0 0.00 0.64 0.00 69 1021.9
20171020204201 56 214 3.0 9.0 0.00 0.65 0.00 69 1021.9
20171020203601 56 204 3.0 8.0 0.00 0.65 0.00 70 1021.9
20171020203001 55 205 3.0 8.0 0.00 0.66 0.00 71 1021.9
20171020202401 55 202 3.0 7.0 0.00 0.67 0.00 72 1021.9
20171020201802 54 204 2.0 5.0 0.00 0.68 0.00 73 1021.8
20171020201201 54 207 2.0 5.0 0.00 0.69 0.00 75 1021.6
20171020200601 53 198 2.0 5.0 0.00 0.69 0.00 75 1021.6
20171020200001 53 192 2.0 5.0 0.00 0.70 0.00 75 1021.6
20171020195401 53 202 3.0 4.0 0.00 0.72 0.00 75 1021.7
20171020194801 53 199 3.0 6.0 0.00 0.72 0.00 75 1021.7
20171020194201 53 196 3.0 7.0 0.00 0.73 0.00 75 1021.7
20171020193601 53 197 2.0 7.0 0.00 0.74 0.00 75 1021.6
20171020193001 53 205 3.0 6.0 0.00 0.75 0.00 75 1021.7
20171020192401 53 212 3.0 6.0 0.00 0.76 0.00 75 1021.6
20171020191802 53 206 3.0 7.0 0.00 0.76 0.00 75 1021.6
20171020191201 53 208 2.0 7.0 0.00 0.76 0.00 75 1021.5
20171020190601 54 207 2.0 5.0 0.00 0.78 0.00 74 1021.6
20171020190001 54 194 2.0 4.0 0.00 0.79 0.00 74 1021.7
20171020185401 54 191 2.0 5.0 0.00 0.80 0.00 74 1021.5
20171020184801 54 192 3.0 5.0 0.00 0.80 0.00 73 1021.5
20171020184201 55 193 3.0 6.0 0.00 0.80 0.00 73 1021.5
20171020183602 55 192 3.0 10.0 0.00 0.81 0.00 73 1021.5
20171020183002 55 195 3.0 7.0 0.00 0.81 0.00 73 1021.5
20171020182402 55 191 4.0 8.0 0.00 0.81 0.00 73 1021.6
20171020181801 56 188 4.0 8.0 0.00 0.81 0.00 73 1021.5
20171020181201 56 187 4.0 8.0 0.00 0.81 0.00 72 1021.5
20171020180601 56 184 5.0 9.0 0.00 0.82 0.00 72 1021.5
20171020180002 56 178 5.0 11.0 0.00 0.82 0.00 71 1021.5
20171020175400 56 175 5.0 11.0 0.00 0.83 0.00 71 1021.5
20171020174801 56 173 5.0 10.0 0.00 0.83 0.00 71 1021.5
20171020174202 56 172 6.0 10.0 0.00 0.83 0.00 70 1021.5
20171020173601 56 170 6.0 12.0 0.00 0.84 0.00 71 1021.6
20171020173001 56 171 6.0 12.0 0.00 0.84 0.00 70 1021.8
20171020172401 56 170 5.0 15.0 0.00 0.84 0.00 71 1021.6
20171020171801 56 170 4.0 15.0 0.00 0.84 0.00 71 1021.7
20171020171201 56 174 4.0 11.0 0.00 0.84 0.00 72 1021.7
20171020170601 56 184 4.0 8.0 0.00 0.84 0.00 72 1021.8
20171020170001 56 182 4.0 9.0 0.00 0.85 0.00 72 1022.0
20171020165401 56 171 5.0 9.0 0.00 0.86 0.00 72 1022.0
20171020164802 56 169 4.0 11.0 0.00 0.87 0.00 73 1022.0
20171020164202 56 170 3.0 11.0 0.00 0.87 0.00 72 1022.0
20171020163601 56 165 3.0 8.0 0.00 0.88 0.00 74 1022.0
20171020163001 56 172 3.0 6.0 0.00 0.88 0.00 74 1022.2
20171020162401 57 170 3.0 8.0 0.00 0.89 0.00 74 1022.3
20171020161801 57 169 3.0 8.0 0.00 0.89 0.00 74 1022.3
20171020161201 57 174 3.0 8.0 0.00 0.89 0.00 74 1022.5
20171020160601 57 178 2.0 9.0 0.00 0.89 0.00 74 1022.5